Location: El Dieciséis
(32.4721°N, 116.6080°W)
Time: 06:57:42
(UTC+00:00)

ARIANE 6 FM1 Upper Stage - Pass Details

Date: 20 August 2024
Orbit: 566 x 594 km, 62.0° (Epoch: 19 September)

Event Time Altitude Azimuth Distance (km) Brightness Sun altitude
Exits shadow 11:13:51 12° 148° (SSE) 1,761 5.2 -23.9°
Maximum altitude 11:16:07 17° 112° (ESE) 1,491 5.2 -23.5°
Drops below altitude 10° 11:18:53 10° 72° (ENE) 1,899 6.4 -23.0°
Sets 11:21:47 0° 52° (NE) 2,810 7.7 -22.5°
